Pittsfield, MA

4:57 PM EDT on September 29, 2016 (GMT -0400)
Pittsfield Municipal

Weather History for KPSF - May, 2013

Change the Weather History Date:

Tuesday, May 14, 2013

  Actual Average Record
Temperature  
Mean Temperature 43 °F 54 °F  
Max Temperature 53 °F 66 °F 83 °F (1930)
Min Temperature 32 °F 43 °F 29 °F (1958)
Degree Days  
Heating Degree Days 22 11  
Month to date heating degree days 151 181  
Since 1 July heating degree days 6787 7216  
Cooling Degree Days 0 0  
Month to date cooling degree days 0 0  
Year to date cooling degree days 0 2  
Moisture  
Dew Point 28 °F    
Average Humidity 62    
Maximum Humidity 89    
Minimum Humidity 35    
Precipitation  
Precipitation 0.00 in 0.12 in 1.65 in (1937)
Month to date precipitation 1.76 1.58  
Year to date precipitation 9.65 14.41  
Sea Level Pressure  
Sea Level Pressure 30.03 in    
Wind  
Wind Speed 6 mph (WNW)    
Max Wind Speed 14 mph    
Max Gust Speed 18 mph    
Visibility 10 miles    
Events      
T = Trace of Precipitation, MM = Missing Value Source: NWS Daily Summary

Daily Weather History Graph

Daily Weather History Graph

Search for Another Location

Airport or City:

Trip Planner

Search our weather history database for the weather conditions in past years. The results will help you decide how hot, cold, wet, or windy it might be!

Date:

Astronomy

May. 14, 2013 Rise Set
Actual Time 5:32 AM EDT 8:07 PM EDT
Civil Twilight 5:00 AM EDT 8:39 PM EDT
Nautical Twilight 4:20 AM EDT 9:19 PM EDT
Astronomical Twilight 3:34 AM EDT 10:05 PM EDT
Moon 9:09 AM EDT (5/14) 11:52 PM EDT (5/14)
Length of Visible Light 15h 39m
Length of Day
14h 34m
Waxing Crescent, 19% of the Moon is Illuminated
May 14
Waxing Crescent
May 18
First Quarter
May 25
Full
May 31
Last Quarter
Jun 8
New

Hourly Weather History & Observations

Time (EDT) Temp. Windchill Dew Point Humidity Pressure Visibility Wind Dir Wind Speed Gust Speed Precip Events Conditions
12:54 AM 36.0 °F 29.0 °F 28.0 °F 73% 30.04 in 10.0 mi WNW 9.2 mph - N/A   Clear
1:54 AM 36.0 °F 29.6 °F 27.0 °F 70% 30.04 in 10.0 mi WNW 8.1 mph - N/A   Partly Cloudy
2:54 AM 36.0 °F 33.3 °F 26.1 °F 67% 30.04 in 10.0 mi WSW 3.5 mph - N/A   Mostly Cloudy
3:54 AM 37.9 °F 32.1 °F 28.0 °F 68% 30.04 in 10.0 mi WNW 8.1 mph - N/A   Overcast
4:54 AM 37.9 °F 32.7 °F 28.0 °F 68% 30.05 in 10.0 mi WNW 6.9 mph - N/A   Overcast
5:54 AM 37.9 °F 33.5 °F 28.0 °F 68% 30.05 in 10.0 mi West 5.8 mph - N/A   Overcast
6:54 AM 39.0 °F 31.8 °F 28.9 °F 67% 30.06 in 10.0 mi WNW 11.5 mph 18.4 mph N/A   Scattered Clouds
7:54 AM 41.0 °F 37.1 °F 30.0 °F 65% 30.07 in 10.0 mi NW 5.8 mph - N/A   Clear
8:54 AM 43.0 °F 38.8 °F 30.9 °F 62% 30.07 in 10.0 mi WNW 6.9 mph - N/A   Clear
9:54 AM 46.0 °F 41.0 °F 30.9 °F 56% 30.06 in 10.0 mi West 10.4 mph - N/A   Clear
10:54 AM 48.9 °F - 30.0 °F 48% 30.04 in 10.0 mi WNW 11.5 mph 17.3 mph N/A   Partly Cloudy
11:54 AM 46.9 °F - 27.0 °F 46% 30.05 in 10.0 mi NNW 5.8 mph - N/A   Overcast
12:54 PM 46.9 °F - 26.1 °F 44% 30.05 in 10.0 mi WNW 9.2 mph - N/A   Overcast
1:54 PM 48.0 °F - 27.0 °F 44% 30.05 in 10.0 mi Variable 6.9 mph - N/A   Overcast
2:54 PM 52.0 °F - 28.0 °F 40% 30.03 in 10.0 mi NW 9.2 mph - N/A   Overcast
3:54 PM 50.0 °F - 27.0 °F 41% 30.01 in 10.0 mi WNW 6.9 mph - N/A   Overcast
4:54 PM 51.1 °F - 25.0 °F 36% 29.99 in 10.0 mi Variable 4.6 mph - N/A   Scattered Clouds
5:54 PM 52.0 °F - 25.0 °F 35% 29.99 in 10.0 mi North 5.8 mph - N/A   Overcast
6:54 PM 51.1 °F - 25.0 °F 36% 29.99 in 10.0 mi NW 5.8 mph - N/A   Partly Cloudy
7:54 PM 48.0 °F - 26.1 °F 42% 29.99 in 10.0 mi Calm Calm - N/A   Clear
8:54 PM 41.0 °F - 30.9 °F 67% 30.01 in 10.0 mi Calm Calm - N/A   Clear
9:54 PM 39.0 °F - 30.9 °F 73% 30.03 in 10.0 mi Calm Calm - N/A   Clear
10:54 PM 35.1 °F - 30.0 °F 82% 30.03 in 10.0 mi Calm Calm - N/A   Clear
11:54 PM 33.1 °F - 30.0 °F 89% 30.05 in 10.0 mi Calm Calm - N/A   Clear